owner,sensor,date,latitude,longitude,sea_water_turbidity,qcFlag 
NERRS,ioos:station:NOAA.NERRS:marcwwq:1,2014-05-01T00:30:00Z,28.0841,-97.2009,24.0,1111122 
NERRS,ioos:station:NOAA.NERRS:marcwwq:1,2014-05-01T01:30:00Z,28.0841,-97.2009,30.0,1111122 
NERRS,ioos:station:NOAA.NERRS:marcwwq:1,2014-05-01T02:30:00Z,28.0841,-97.2009,47.0,1111122 
NERRS,ioos:station:NOAA.NERRS:marcwwq:1,2014-05-01T03:00:00Z,28.0841,-97.2009,41.0,1111122 
NERRS,ioos:station:NOAA.NERRS:marcwwq:1,2014-05-01T04:30:00Z,28.0841,-97.2009,66.0,1111122 
NERRS,ioos:station:NOAA.NERRS:marcwwq:1,2014-05-01T05:30:00Z,28.0841,-97.2009,72.0,1111122 
NERRS,ioos:station:NOAA.NERRS:marcwwq:1,2014-05-01T07:00:00Z,28.0841,-97.2009,94.0,1111122 
NERRS,ioos:station:NOAA.NERRS:marcwwq:1,2014-05-01T08:30:00Z,28.0841,-97.2009,72.0,1111122 
NERRS,ioos:station:NOAA.NERRS:marcwwq:1,2014-05-01T09:30:00Z,28.0841,-97.2009,64.0,1111122 
NERRS,ioos:station:NOAA.NERRS:marcwwq:1,2014-05-01T10:30:00Z,28.0841,-97.2009,60.0,1111122 
NERRS,ioos:station:NOAA.NERRS:marcwwq:1,2014-05-01T11:30:00Z,28.0841,-97.2009,60.0,1111122 
NERRS,ioos:station:NOAA.NERRS:marcwwq:1,2014-05-01T12:30:00Z,28.0841,-97.2009,61.0,1111122 
NERRS,ioos:station:NOAA.NERRS:marcwwq:1,2014-05-01T13:30:00Z,28.0841,-97.2009,68.0,1111122 
NERRS,ioos:station:NOAA.NERRS:marcwwq:1,2014-05-01T14:30:00Z,28.0841,-97.2009,68.0,1111122 
NERRS,ioos:station:NOAA.NERRS:marcwwq:1,2014-05-01T16:30:00Z,28.0841,-97.2009,43.0,1111122 
NERRS,ioos:station:NOAA.NERRS:marcwwq:1,2014-05-01T17:30:00Z,28.0841,-97.2009,41.0,1111122 
NERRS,ioos:station:NOAA.NERRS:marcwwq:1,2014-05-01T18:30:00Z,28.0841,-97.2009,31.0,1111122 
NERRS,ioos:station:NOAA.NERRS:marcwwq:1,2014-05-01T19:30:00Z,28.0841,-97.2009,26.0,1111122 
NERRS,ioos:station:NOAA.NERRS:marcwwq:1,2014-05-01T20:30:00Z,28.0841,-97.2009,20.0,1111122 
NERRS,ioos:station:NOAA.NERRS:marcwwq:1,2014-05-01T23:30:00Z,28.0841,-97.2009,17.0,1111122 
NERRS,ioos:station:NOAA.NERRS:marcwwq:1,2014-05-02T00:30:00Z,28.0841,-97.2009,22.0,1111122 
NERRS,ioos:station:NOAA.NERRS:marcwwq:1,2014-05-02T01:30:00Z,28.0841,-97.2009,21.0,1111122 
NERRS,ioos:station:NOAA.NERRS:marcwwq:1,2014-05-02T02:30:00Z,28.0841,-97.2009,23.0,1111122 
NERRS,ioos:station:NOAA.NERRS:marcwwq:1,2014-05-02T03:30:00Z,28.0841,-97.2009,18.0,1111122 
NERRS,ioos:station:NOAA.NERRS:marcwwq:1,2014-05-02T04:30:00Z,28.0841,-97.2009,17.0,1111122 
NERRS,ioos:station:NOAA.NERRS:marcwwq:1,2014-05-02T06:30:00Z,28.0841,-97.2009,14.0,1111122 
NERRS,ioos:station:NOAA.NERRS:marcwwq:1,2014-05-02T07:30:00Z,28.0841,-97.2009,18.0,1111122 
NERRS,ioos:station:NOAA.NERRS:marcwwq:1,2014-05-02T08:30:00Z,28.0841,-97.2009,14.0,1111122 
NERRS,ioos:station:NOAA.NERRS:marcwwq:1,2014-05-02T09:30:00Z,28.0841,-97.2009,13.0,1111122 
NERRS,ioos:station:NOAA.NERRS:marcwwq:1,2014-05-02T10:30:00Z,28.0841,-97.2009,13.0,1111122 
NERRS,ioos:station:NOAA.NERRS:marcwwq:1,2014-05-02T11:30:00Z,28.0841,-97.2009,12.0,1111122 
NERRS,ioos:station:NOAA.NERRS:marcwwq:1,2014-05-02T12:30:00Z,28.0841,-97.2009,13.0,1111122 
NERRS,ioos:station:NOAA.NERRS:marcwwq:1,2014-05-02T13:30:00Z,28.0841,-97.2009,12.0,1111122 
NERRS,ioos:station:NOAA.NERRS:marcwwq:1,2014-05-02T16:30:00Z,28.0841,-97.2009,10.0,1111122 
NERRS,ioos:station:NOAA.NERRS:marcwwq:1,2014-05-02T17:30:00Z,28.0841,-97.2009,8.0,1111122 
NERRS,ioos:station:NOAA.NERRS:marcwwq:1,2014-05-02T18:30:00Z,28.0841,-97.2009,7.0,1111122 
NERRS,ioos:station:NOAA.NERRS:marcwwq:1,2014-05-02T19:30:00Z,28.0841,-97.2009,7.0,1111122 
NERRS,ioos:station:NOAA.NERRS:marcwwq:1,2014-05-02T20:30:00Z,28.0841,-97.2009,7.0,1111122 
NERRS,ioos:station:NOAA.NERRS:marcwwq:1,2014-05-02T22:30:00Z,28.0841,-97.2009,13.0,1111122 
NERRS,ioos:station:NOAA.NERRS:marcwwq:1,2014-05-02T23:30:00Z,28.0841,-97.2009,11.0,1111122 
NERRS,ioos:station:NOAA.NERRS:marcwwq:1,2014-05-03T00:30:00Z,28.0841,-97.2009,10.0,1111122 
NERRS,ioos:station:NOAA.NERRS:marcwwq:1,2014-05-03T01:30:00Z,28.0841,-97.2009,7.0,1111122 
NERRS,ioos:station:NOAA.NERRS:marcwwq:1,2014-05-03T02:30:00Z,28.0841,-97.2009,6.0,1111122 
NERRS,ioos:station:NOAA.NERRS:marcwwq:1,2014-05-03T03:30:00Z,28.0841,-97.2009,7.0,1111122 
NERRS,ioos:station:NOAA.NERRS:marcwwq:1,2014-05-03T05:30:00Z,28.0841,-97.2009,7.0,1111122 
NERRS,ioos:station:NOAA.NERRS:marcwwq:1,2014-05-03T08:30:00Z,28.0841,-97.2009,9.0,1111122 
NERRS,ioos:station:NOAA.NERRS:marcwwq:1,2014-05-03T14:30:00Z,28.0841,-97.2009,12.0,1111122 
NERRS,ioos:station:NOAA.NERRS:marcwwq:1,2014-05-03T15:30:00Z,28.0841,-97.2009,12.0,1111122 
NERRS,ioos:station:NOAA.NERRS:marcwwq:1,2014-05-03T16:30:00Z,28.0841,-97.2009,11.0,1111122 
NERRS,ioos:station:NOAA.NERRS:marcwwq:1,2014-05-03T17:30:00Z,28.0841,-97.2009,9.0,1111122 
NERRS,ioos:station:NOAA.NERRS:marcwwq:1,2014-05-03T18:30:00Z,28.0841,-97.2009,9.0,1111122 
NERRS,ioos:station:NOAA.NERRS:marcwwq:1,2014-05-03T20:30:00Z,28.0841,-97.2009,8.0,1111122 
NERRS,ioos:station:NOAA.NERRS:marcwwq:1,2014-05-03T21:30:00Z,28.0841,-97.2009,17.0,1111122 
NERRS,ioos:station:NOAA.NERRS:marcwwq:1,2014-05-03T22:30:00Z,28.0841,-97.2009,24.0,1111122 
NERRS,ioos:station:NOAA.NERRS:marcwwq:1,2014-05-03T23:30:00Z,28.0841,-97.2009,30.0,1111122 
NERRS,ioos:station:NOAA.NERRS:marcwwq:1,2014-05-04T01:30:00Z,28.0841,-97.2009,30.0,1111122 
NERRS,ioos:station:NOAA.NERRS:marcwwq:1,2014-05-04T14:30:00Z,28.0841,-97.2009,20.0,1111122 
NERRS,ioos:station:NOAA.NERRS:marcwwq:1,2014-05-04T15:30:00Z,28.0841,-97.2009,20.0,1111122 
NERRS,ioos:station:NOAA.NERRS:marcwwq:1,2014-05-04T16:30:00Z,28.0841,-97.2009,31.0,1111122 
NERRS,ioos:station:NOAA.NERRS:marcwwq:1,2014-05-04T19:30:00Z,28.0841,-97.2009,38.0,1111122 
NERRS,ioos:station:NOAA.NERRS:marcwwq:1,2014-05-04T22:30:00Z,28.0841,-97.2009,43.0,1111122 
NERRS,ioos:station:NOAA.NERRS:marcwwq:1,2014-05-04T23:30:00Z,28.0841,-97.2009,58.0,1111122 
NERRS,ioos:station:NOAA.NERRS:marcwwq:1,2014-05-05T02:30:00Z,28.0841,-97.2009,50.0,1111122 
NERRS,ioos:station:NOAA.NERRS:marcwwq:1,2014-05-05T04:30:00Z,28.0841,-97.2009,47.0,1111122 
NERRS,ioos:station:NOAA.NERRS:marcwwq:1,2014-05-05T05:30:00Z,28.0841,-97.2009,48.0,1111122 
NERRS,ioos:station:NOAA.NERRS:marcwwq:1,2014-05-05T07:30:00Z,28.0841,-97.2009,41.0,1111122 
NERRS,ioos:station:NOAA.NERRS:marcwwq:1,2014-05-05T08:30:00Z,28.0841,-97.2009,30.0,1111122 
NERRS,ioos:station:NOAA.NERRS:marcwwq:1,2014-05-05T09:30:00Z,28.0841,-97.2009,27.0,1111122 
NERRS,ioos:station:NOAA.NERRS:marcwwq:1,2014-05-05T10:30:00Z,28.0841,-97.2009,23.0,1111122 
NERRS,ioos:station:NOAA.NERRS:marcwwq:1,2014-05-05T11:30:00Z,28.0841,-97.2009,22.0,1111122 
NERRS,ioos:station:NOAA.NERRS:marcwwq:1,2014-05-05T12:30:00Z,28.0841,-97.2009,19.0,1111122 
NERRS,ioos:station:NOAA.NERRS:marcwwq:1,2014-05-05T13:30:00Z,28.0841,-97.2009,16.0,1111122 
NERRS,ioos:station:NOAA.NERRS:marcwwq:1,2014-05-05T15:30:00Z,28.0841,-97.2009,39.0,1111122 
NERRS,ioos:station:NOAA.NERRS:marcwwq:1,2014-05-05T20:30:00Z,28.0841,-97.2009,46.0,1111122 
NERRS,ioos:station:NOAA.NERRS:marcwwq:1,2014-05-05T21:30:00Z,28.0841,-97.2009,46.0,1111122 
NERRS,ioos:station:NOAA.NERRS:marcwwq:1,2014-05-05T22:30:00Z,28.0841,-97.2009,47.0,1111122 
NERRS,ioos:station:NOAA.NERRS:marcwwq:1,2014-05-06T00:30:00Z,28.0841,-97.2009,59.0,1111122 
NERRS,ioos:station:NOAA.NERRS:marcwwq:1,2014-05-06T02:30:00Z,28.0841,-97.2009,44.0,1111122 
NERRS,ioos:station:NOAA.NERRS:marcwwq:1,2014-05-06T03:30:00Z,28.0841,-97.2009,43.0,1111122 
NERRS,ioos:station:NOAA.NERRS:marcwwq:1,2014-05-06T04:30:00Z,28.0841,-97.2009,42.0,1111122 
NERRS,ioos:station:NOAA.NERRS:marcwwq:1,2014-05-06T07:30:00Z,28.0841,-97.2009,33.0,1111122 
NERRS,ioos:station:NOAA.NERRS:marcwwq:1,2014-05-06T08:30:00Z,28.0841,-97.2009,30.0,1111122 
NERRS,ioos:station:NOAA.NERRS:marcwwq:1,2014-05-06T09:30:00Z,28.0841,-97.2009,29.0,1111122 
NERRS,ioos:station:NOAA.NERRS:marcwwq:1,2014-05-06T11:30:00Z,28.0841,-97.2009,30.0,1111122 
NERRS,ioos:station:NOAA.NERRS:marcwwq:1,2014-05-06T12:30:00Z,28.0841,-97.2009,33.0,1111122 
NERRS,ioos:station:NOAA.NERRS:marcwwq:1,2014-05-06T13:30:00Z,28.0841,-97.2009,39.0,1111122 
NERRS,ioos:station:NOAA.NERRS:marcwwq:1,2014-05-06T14:30:00Z,28.0841,-97.2009,48.0,1111122 
NERRS,ioos:station:NOAA.NERRS:marcwwq:1,2014-05-06T15:30:00Z,28.0841,-97.2009,57.0,1111122 
NERRS,ioos:station:NOAA.NERRS:marcwwq:1,2014-05-06T16:30:00Z,28.0841,-97.2009,62.0,1111122 
NERRS,ioos:station:NOAA.NERRS:marcwwq:1,2014-05-06T17:30:00Z,28.0841,-97.2009,62.0,1111122 
NERRS,ioos:station:NOAA.NERRS:marcwwq:1,2014-05-06T23:00:00Z,28.0841,-97.2009,109.0,1111122 
NERRS,ioos:station:NOAA.NERRS:marcwwq:1,2014-05-07T01:30:00Z,28.0841,-97.2009,94.0,1111122 
NERRS,ioos:station:NOAA.NERRS:marcwwq:1,2014-05-07T03:30:00Z,28.0841,-97.2009,67.0,1111122 
NERRS,ioos:station:NOAA.NERRS:marcwwq:1,2014-05-07T04:30:00Z,28.0841,-97.2009,55.0,1111122 
NERRS,ioos:station:NOAA.NERRS:marcwwq:1,2014-05-07T08:30:00Z,28.0841,-97.2009,42.0,1111122 
NERRS,ioos:station:NOAA.NERRS:marcwwq:1,2014-05-07T09:30:00Z,28.0841,-97.2009,38.0,1111122 
NERRS,ioos:station:NOAA.NERRS:marcwwq:1,2014-05-07T11:30:00Z,28.0841,-97.2009,39.0,1111122 
NERRS,ioos:station:NOAA.NERRS:marcwwq:1,2014-05-07T12:30:00Z,28.0841,-97.2009,53.0,1111122 
NERRS,ioos:station:NOAA.NERRS:marcwwq:1,2014-05-07T14:30:00Z,28.0841,-97.2009,65.0,1111122 
NERRS,ioos:station:NOAA.NERRS:marcwwq:1,2014-05-07T15:30:00Z,28.0841,-97.2009,60.0,1111122 
NERRS,ioos:station:NOAA.NERRS:marcwwq:1,2014-05-07T16:30:00Z,28.0841,-97.2009,68.0,1111122 
NERRS,ioos:station:NOAA.NERRS:marcwwq:1,2014-05-07T17:30:00Z,28.0841,-97.2009,99.0,1111122 
NERRS,ioos:station:NOAA.NERRS:marcwwq:1,2014-05-07T18:30:00Z,28.0841,-97.2009,108.0,1111122 
NERRS,ioos:station:NOAA.NERRS:marcwwq:1,2014-05-07T19:30:00Z,28.0841,-97.2009,93.0,1111122 
NERRS,ioos:station:NOAA.NERRS:marcwwq:1,2014-05-07T20:30:00Z,28.0841,-97.2009,64.0,1111122 
NERRS,ioos:station:NOAA.NERRS:marcwwq:1,2014-05-07T21:30:00Z,28.0841,-97.2009,144.0,1111122 
NERRS,ioos:station:NOAA.NERRS:marcwwq:1,2014-05-08T00:30:00Z,28.0841,-97.2009,66.0,1111122 
NERRS,ioos:station:NOAA.NERRS:marcwwq:1,2014-05-08T01:30:00Z,28.0841,-97.2009,71.0,1111122 
NERRS,ioos:station:NOAA.NERRS:marcwwq:1,2014-05-08T02:30:00Z,28.0841,-97.2009,70.0,1111122 
NERRS,ioos:station:NOAA.NERRS:marcwwq:1,2014-05-08T03:30:00Z,28.0841,-97.2009,69.0,1111122 
NERRS,ioos:station:NOAA.NERRS:marcwwq:1,2014-05-08T04:30:00Z,28.0841,-97.2009,72.0,1111122 
NERRS,ioos:station:NOAA.NERRS:marcwwq:1,2014-05-08T05:30:00Z,28.0841,-97.2009,68.0,1111122 
NERRS,ioos:station:NOAA.NERRS:marcwwq:1,2014-05-08T06:30:00Z,28.0841,-97.2009,43.0,1111122 
NERRS,ioos:station:NOAA.NERRS:marcwwq:1,2014-05-08T09:00:00Z,28.0841,-97.2009,22.0,1111122 
NERRS,ioos:station:NOAA.NERRS:marcwwq:1,2014-05-08T11:30:00Z,28.0841,-97.2009,28.0,1111122 
NERRS,ioos:station:NOAA.NERRS:marcwwq:1,2014-05-08T12:30:00Z,28.0841,-97.2009,32.0,1111122 
NERRS,ioos:station:NOAA.NERRS:marcwwq:1,2014-05-08T13:30:00Z,28.0841,-97.2009,43.0,1111122 
NERRS,ioos:station:NOAA.NERRS:marcwwq:1,2014-05-08T14:30:00Z,28.0841,-97.2009,56.0,1111122 
NERRS,ioos:station:NOAA.NERRS:marcwwq:1,2014-05-08T17:30:00Z,28.0841,-97.2009,72.0,1111122 
NERRS,ioos:station:NOAA.NERRS:marcwwq:1,2014-05-08T18:30:00Z,28.0841,-97.2009,56.0,1111122 
NERRS,ioos:station:NOAA.NERRS:marcwwq:1,2014-05-08T19:30:00Z,28.0841,-97.2009,51.0,1111122 
NERRS,ioos:station:NOAA.NERRS:marcwwq:1,2014-05-08T20:30:00Z,28.0841,-97.2009,55.0,1111122 
NERRS,ioos:station:NOAA.NERRS:marcwwq:1,2014-05-08T21:30:00Z,28.0841,-97.2009,58.0,1111122 
NERRS,ioos:station:NOAA.NERRS:marcwwq:1,2014-05-08T22:30:00Z,28.0841,-97.2009,69.0,1111122 
NERRS,ioos:station:NOAA.NERRS:marcwwq:1,2014-05-08T23:30:00Z,28.0841,-97.2009,73.0,1111122 
NERRS,ioos:station:NOAA.NERRS:marcwwq:1,2014-05-09T00:30:00Z,28.0841,-97.2009,60.0,1111122 
NERRS,ioos:station:NOAA.NERRS:marcwwq:1,2014-05-09T01:30:00Z,28.0841,-97.2009,31.0,1111122 
NERRS,ioos:station:NOAA.NERRS:marcwwq:1,2014-05-09T02:30:00Z,28.0841,-97.2009,25.0,1111122 
NERRS,ioos:station:NOAA.NERRS:marcwwq:1,2014-05-09T03:30:00Z,28.0841,-97.2009,32.0,1111122 
NERRS,ioos:station:NOAA.NERRS:marcwwq:1,2014-05-09T04:30:00Z,28.0841,-97.2009,29.0,1111122 
NERRS,ioos:station:NOAA.NERRS:marcwwq:1,2014-05-09T07:00:00Z,28.0841,-97.2009,26.0,1111122 
NERRS,ioos:station:NOAA.NERRS:marcwwq:1,2014-05-09T09:30:00Z,28.0841,-97.2009,37.0,1111122 
NERRS,ioos:station:NOAA.NERRS:marcwwq:1,2014-05-09T10:30:00Z,28.0841,-97.2009,32.0,1111122 
NERRS,ioos:station:NOAA.NERRS:marcwwq:1,2014-05-09T11:00:00Z,28.0841,-97.2009,30.0,1111122 
NERRS,ioos:station:NOAA.NERRS:marcwwq:1,2014-05-09T12:30:00Z,28.0841,-97.2009,28.0,1111122 
NERRS,ioos:station:NOAA.NERRS:marcwwq:1,2014-05-09T14:30:00Z,28.0841,-97.2009,26.0,1111122 
NERRS,ioos:station:NOAA.NERRS:marcwwq:1,2014-05-09T15:30:00Z,28.0841,-97.2009,24.0,1111122 
NERRS,ioos:station:NOAA.NERRS:marcwwq:1,2014-05-09T16:30:00Z,28.0841,-97.2009,37.0,1111122 
NERRS,ioos:station:NOAA.NERRS:marcwwq:1,2014-05-09T17:30:00Z,28.0841,-97.2009,40.0,1111122 
NERRS,ioos:station:NOAA.NERRS:marcwwq:1,2014-05-09T18:30:00Z,28.0841,-97.2009,42.0,1111122 
NERRS,ioos:station:NOAA.NERRS:marcwwq:1,2014-05-09T19:30:00Z,28.0841,-97.2009,52.0,1111122 
NERRS,ioos:station:NOAA.NERRS:marcwwq:1,2014-05-09T20:30:00Z,28.0841,-97.2009,39.0,1111122 
NERRS,ioos:station:NOAA.NERRS:marcwwq:1,2014-05-09T21:30:00Z,28.0841,-97.2009,30.0,1111122 
NERRS,ioos:station:NOAA.NERRS:marcwwq:1,2014-05-09T23:30:00Z,28.0841,-97.2009,26.0,1111122 
NERRS,ioos:station:NOAA.NERRS:marcwwq:1,2014-05-10T00:30:00Z,28.0841,-97.2009,33.0,1111122 
NERRS,ioos:station:NOAA.NERRS:marcwwq:1,2014-05-10T01:30:00Z,28.0841,-97.2009,48.0,1111122 
NERRS,ioos:station:NOAA.NERRS:marcwwq:1,2014-05-10T02:30:00Z,28.0841,-97.2009,42.0,1111122 
NERRS,ioos:station:NOAA.NERRS:marcwwq:1,2014-05-10T03:30:00Z,28.0841,-97.2009,36.0,1111122 
NERRS,ioos:station:NOAA.NERRS:marcwwq:1,2014-05-10T04:30:00Z,28.0841,-97.2009,60.0,1111122 
NERRS,ioos:station:NOAA.NERRS:marcwwq:1,2014-05-10T05:30:00Z,28.0841,-97.2009,102.0,1111122 
NERRS,ioos:station:NOAA.NERRS:marcwwq:1,2014-05-10T06:30:00Z,28.0841,-97.2009,59.0,1111122 
NERRS,ioos:station:NOAA.NERRS:marcwwq:1,2014-05-10T07:30:00Z,28.0841,-97.2009,40.0,1111122 
NERRS,ioos:station:NOAA.NERRS:marcwwq:1,2014-05-10T08:30:00Z,28.0841,-97.2009,30.0,1111122 
NERRS,ioos:station:NOAA.NERRS:marcwwq:1,2014-05-10T09:30:00Z,28.0841,-97.2009,27.0,1111122 
NERRS,ioos:station:NOAA.NERRS:marcwwq:1,2014-05-10T10:30:00Z,28.0841,-97.2009,23.0,1111122 
NERRS,ioos:station:NOAA.NERRS:marcwwq:1,2014-05-10T11:30:00Z,28.0841,-97.2009,23.0,1111122 
NERRS,ioos:station:NOAA.NERRS:marcwwq:1,2014-05-10T12:30:00Z,28.0841,-97.2009,23.0,1111122 
NERRS,ioos:station:NOAA.NERRS:marcwwq:1,2014-05-10T13:30:00Z,28.0841,-97.2009,25.0,1111122 
NERRS,ioos:station:NOAA.NERRS:marcwwq:1,2014-05-10T14:30:00Z,28.0841,-97.2009,21.0,1111122 
NERRS,ioos:station:NOAA.NERRS:marcwwq:1,2014-05-10T15:30:00Z,28.0841,-97.2009,20.0,1111122 
NERRS,ioos:station:NOAA.NERRS:marcwwq:1,2014-05-10T16:30:00Z,28.0841,-97.2009,36.0,1111122 
NERRS,ioos:station:NOAA.NERRS:marcwwq:1,2014-05-10T17:30:00Z,28.0841,-97.2009,16.0,1111122 
NERRS,ioos:station:NOAA.NERRS:marcwwq:1,2014-05-10T20:30:00Z,28.0841,-97.2009,324.0,1111122 
NERRS,ioos:station:NOAA.NERRS:marcwwq:1,2014-05-11T01:30:00Z,28.0841,-97.2009,37.0,1111122 
NERRS,ioos:station:NOAA.NERRS:marcwwq:1,2014-05-11T02:30:00Z,28.0841,-97.2009,35.0,1111122 
NERRS,ioos:station:NOAA.NERRS:marcwwq:1,2014-05-11T03:30:00Z,28.0841,-97.2009,36.0,1111122 
NERRS,ioos:station:NOAA.NERRS:marcwwq:1,2014-05-11T04:30:00Z,28.0841,-97.2009,35.0,1111122 
NERRS,ioos:station:NOAA.NERRS:marcwwq:1,2014-05-11T07:30:00Z,28.0841,-97.2009,34.0,1111122 
NERRS,ioos:station:NOAA.NERRS:marcwwq:1,2014-05-11T08:30:00Z,28.0841,-97.2009,34.0,1111122 
NERRS,ioos:station:NOAA.NERRS:marcwwq:1,2014-05-11T10:30:00Z,28.0841,-97.2009,29.0,1111122 
NERRS,ioos:station:NOAA.NERRS:marcwwq:1,2014-05-11T11:30:00Z,28.0841,-97.2009,32.0,1111122 
NERRS,ioos:station:NOAA.NERRS:marcwwq:1,2014-05-11T12:30:00Z,28.0841,-97.2009,39.0,1111122 
NERRS,ioos:station:NOAA.NERRS:marcwwq:1,2014-05-11T13:30:00Z,28.0841,-97.2009,45.0,1111122 
NERRS,ioos:station:NOAA.NERRS:marcwwq:1,2014-05-11T14:30:00Z,28.0841,-97.2009,43.0,1111122 
NERRS,ioos:station:NOAA.NERRS:marcwwq:1,2014-05-11T18:30:00Z,28.0841,-97.2009,42.0,1111122 
NERRS,ioos:station:NOAA.NERRS:marcwwq:1,2014-05-11T19:30:00Z,28.0841,-97.2009,40.0,1111122 
NERRS,ioos:station:NOAA.NERRS:marcwwq:1,2014-05-11T20:30:00Z,28.0841,-97.2009,35.0,1111122 
NERRS,ioos:station:NOAA.NERRS:marcwwq:1,2014-05-11T21:30:00Z,28.0841,-97.2009,46.0,1111122 
NERRS,ioos:station:NOAA.NERRS:marcwwq:1,2014-05-11T23:30:00Z,28.0841,-97.2009,48.0,1111122 
NERRS,ioos:station:NOAA.NERRS:marcwwq:1,2014-05-12T00:30:00Z,28.0841,-97.2009,44.0,1111122 
NERRS,ioos:station:NOAA.NERRS:marcwwq:1,2014-05-12T02:30:00Z,28.0841,-97.2009,44.0,1111122 
NERRS,ioos:station:NOAA.NERRS:marcwwq:1,2014-05-12T03:30:00Z,28.0841,-97.2009,68.0,1111122 
NERRS,ioos:station:NOAA.NERRS:marcwwq:1,2014-05-12T04:30:00Z,28.0841,-97.2009,68.0,1111122 
NERRS,ioos:station:NOAA.NERRS:marcwwq:1,2014-05-12T09:30:00Z,28.0841,-97.2009,63.0,1111122 
NERRS,ioos:station:NOAA.NERRS:marcwwq:1,2014-05-12T11:30:00Z,28.0841,-97.2009,68.0,1111122 
NERRS,ioos:station:NOAA.NERRS:marcwwq:1,2014-05-12T15:30:00Z,28.0841,-97.2009,80.0,1111122 
NERRS,ioos:station:NOAA.NERRS:marcwwq:1,2014-05-12T16:30:00Z,28.0841,-97.2009,72.0,1111122 
NERRS,ioos:station:NOAA.NERRS:marcwwq:1,2014-05-12T17:30:00Z,28.0841,-97.2009,59.0,1111122 
NERRS,ioos:station:NOAA.NERRS:marcwwq:1,2014-05-12T19:30:00Z,28.0841,-97.2009,51.0,1111122 
NERRS,ioos:station:NOAA.NERRS:marcwwq:1,2014-05-12T20:30:00Z,28.0841,-97.2009,56.0,1111122 
NERRS,ioos:station:NOAA.NERRS:marcwwq:1,2014-05-12T21:30:00Z,28.0841,-97.2009,61.0,1111122 
NERRS,ioos:station:NOAA.NERRS:marcwwq:1,2014-05-13T00:30:00Z,28.0841,-97.2009,72.0,1111122 
NERRS,ioos:station:NOAA.NERRS:marcwwq:1,2014-05-13T01:30:00Z,28.0841,-97.2009,66.0,1111122 
NERRS,ioos:station:NOAA.NERRS:marcwwq:1,2014-05-13T02:30:00Z,28.0841,-97.2009,66.0,1111122 
NERRS,ioos:station:NOAA.NERRS:marcwwq:1,2014-05-13T03:30:00Z,28.0841,-97.2009,54.0,1111122 
NERRS,ioos:station:NOAA.NERRS:marcwwq:1,2014-05-13T04:30:00Z,28.0841,-97.2009,58.0,1111122 
NERRS,ioos:station:NOAA.NERRS:marcwwq:1,2014-05-13T07:30:00Z,28.0841,-97.2009,49.0,1111122 
NERRS,ioos:station:NOAA.NERRS:marcwwq:1,2014-05-13T08:30:00Z,28.0841,-97.2009,47.0,1111122 
NERRS,ioos:station:NOAA.NERRS:marcwwq:1,2014-05-13T09:30:00Z,28.0841,-97.2009,71.0,1111122 
NERRS,ioos:station:NOAA.NERRS:marcwwq:1,2014-05-13T10:30:00Z,28.0841,-97.2009,107.0,1111122 
NERRS,ioos:station:NOAA.NERRS:marcwwq:1,2014-05-13T11:30:00Z,28.0841,-97.2009,167.0,1111122 
NERRS,ioos:station:NOAA.NERRS:marcwwq:1,2014-05-13T12:30:00Z,28.0841,-97.2009,216.0,1111122 
NERRS,ioos:station:NOAA.NERRS:marcwwq:1,2014-05-13T15:30:00Z,28.0841,-97.2009,123.0,1111122 
NERRS,ioos:station:NOAA.NERRS:marcwwq:1,2014-05-13T16:30:00Z,28.0841,-97.2009,96.0,1111122 
NERRS,ioos:station:NOAA.NERRS:marcwwq:1,2014-05-13T19:30:00Z,28.0841,-97.2009,121.0,1111122 
NERRS,ioos:station:NOAA.NERRS:marcwwq:1,2014-05-13T20:30:00Z,28.0841,-97.2009,112.0,1111122 
NERRS,ioos:station:NOAA.NERRS:marcwwq:1,2014-05-13T21:30:00Z,28.0841,-97.2009,96.0,1111122 
NERRS,ioos:station:NOAA.NERRS:marcwwq:1,2014-05-13T22:30:00Z,28.0841,-97.2009,115.0,1111122 
NERRS,ioos:station:NOAA.NERRS:marcwwq:1,2014-05-13T23:30:00Z,28.0841,-97.2009,130.0,1111122 
NERRS,ioos:station:NOAA.NERRS:marcwwq:1,2014-05-14T00:30:00Z,28.0841,-97.2009,117.0,1111122 
NERRS,ioos:station:NOAA.NERRS:marcwwq:1,2014-05-14T01:30:00Z,28.0841,-97.2009,98.0,1111122 
NERRS,ioos:station:NOAA.NERRS:marcwwq:1,2014-05-14T02:30:00Z,28.0841,-97.2009,68.0,1111122 
NERRS,ioos:station:NOAA.NERRS:marcwwq:1,2014-05-14T04:00:00Z,28.0841,-97.2009,66.0,1111122 
NERRS,ioos:station:NOAA.NERRS:marcwwq:1,2014-05-14T05:30:00Z,28.0841,-97.2009,95.0,1111122 
NERRS,ioos:station:NOAA.NERRS:marcwwq:1,2014-05-14T07:00:00Z,28.0841,-97.2009,118.0,1111122 
NERRS,ioos:station:NOAA.NERRS:marcwwq:1,2014-05-14T07:30:00Z,28.0841,-97.2009,122.0,1111122 
NERRS,ioos:station:NOAA.NERRS:marcwwq:1,2014-05-14T08:30:00Z,28.0841,-97.2009,144.0,1111122 
NERRS,ioos:station:NOAA.NERRS:marcwwq:1,2014-05-14T09:30:00Z,28.0841,-97.2009,148.0,1111122 
NERRS,ioos:station:NOAA.NERRS:marcwwq:1,2014-05-14T10:30:00Z,28.0841,-97.2009,140.0,1111122 
NERRS,ioos:station:NOAA.NERRS:marcwwq:1,2014-05-14T11:30:00Z,28.0841,-97.2009,150.0,1111122 
NERRS,ioos:station:NOAA.NERRS:marcwwq:1,2014-05-14T12:30:00Z,28.0841,-97.2009,139.0,1111122 
NERRS,ioos:station:NOAA.NERRS:marcwwq:1,2014-05-14T13:30:00Z,28.0841,-97.2009,114.0,1111122 
NERRS,ioos:station:NOAA.NERRS:marcwwq:1,2014-05-14T14:30:00Z,28.0841,-97.2009,108.0,1111122 
NERRS,ioos:station:NOAA.NERRS:marcwwq:1,2014-05-14T15:30:00Z,28.0841,-97.2009,120.0,1111122 
NERRS,ioos:station:NOAA.NERRS:marcwwq:1,2014-05-14T16:30:00Z,28.0841,-97.2009,139.0,1111122 
NERRS,ioos:station:NOAA.NERRS:marcwwq:1,2014-05-14T17:30:00Z,28.0841,-97.2009,151.0,1111122 
NERRS,ioos:station:NOAA.NERRS:marcwwq:1,2014-05-14T18:30:00Z,28.0841,-97.2009,161.0,1111122 
NERRS,ioos:station:NOAA.NERRS:marcwwq:1,2014-05-14T19:30:00Z,28.0841,-97.2009,163.0,1111122 
NERRS,ioos:station:NOAA.NERRS:marcwwq:1,2014-05-14T20:30:00Z,28.0841,-97.2009,131.0,1111122 
NERRS,ioos:station:NOAA.NERRS:marcwwq:1,2014-05-14T21:30:00Z,28.0841,-97.2009,149.0,1111122 
NERRS,ioos:station:NOAA.NERRS:marcwwq:1,2014-05-14T22:30:00Z,28.0841,-97.2009,127.0,1111122 
NERRS,ioos:station:NOAA.NERRS:marcwwq:1,2014-05-14T23:30:00Z,28.0841,-97.2009,120.0,1111122 
NERRS,ioos:station:NOAA.NERRS:marcwwq:1,2014-05-15T00:30:00Z,28.0841,-97.2009,109.0,1111122 
NERRS,ioos:station:NOAA.NERRS:marcwwq:1,2014-05-15T01:30:00Z,28.0841,-97.2009,87.0,1111122 
NERRS,ioos:station:NOAA.NERRS:marcwwq:1,2014-05-15T02:30:00Z,28.0841,-97.2009,51.0,1111122 
NERRS,ioos:station:NOAA.NERRS:marcwwq:1,2014-05-15T03:30:00Z,28.0841,-97.2009,37.0,1111122 
NERRS,ioos:station:NOAA.NERRS:marcwwq:1,2014-05-15T04:30:00Z,28.0841,-97.2009,36.0,1111122 
NERRS,ioos:station:NOAA.NERRS:marcwwq:1,2014-05-15T05:30:00Z,28.0841,-97.2009,45.0,1111122 
NERRS,ioos:station:NOAA.NERRS:marcwwq:1,2014-05-15T07:00:00Z,28.0841,-97.2009,60.0,1111122 
NERRS,ioos:station:NOAA.NERRS:marcwwq:1,2014-05-15T07:30:00Z,28.0841,-97.2009,61.0,1111122 
NERRS,ioos:station:NOAA.NERRS:marcwwq:1,2014-05-15T08:30:00Z,28.0841,-97.2009,52.0,1111122 
NERRS,ioos:station:NOAA.NERRS:marcwwq:1,2014-05-15T09:30:00Z,28.0841,-97.2009,49.0,1111122 
NERRS,ioos:station:NOAA.NERRS:marcwwq:1,2014-05-15T10:30:00Z,28.0841,-97.2009,46.0,1111122 
NERRS,ioos:station:NOAA.NERRS:marcwwq:1,2014-05-15T11:30:00Z,28.0841,-97.2009,42.0,1111122 
NERRS,ioos:station:NOAA.NERRS:marcwwq:1,2014-05-15T12:30:00Z,28.0841,-97.2009,207.0,1111122 
NERRS,ioos:station:NOAA.NERRS:marcwwq:1,2014-05-15T13:30:00Z,28.0841,-97.2009,22.0,1111122 
NERRS,ioos:station:NOAA.NERRS:marcwwq:1,2014-05-15T14:30:00Z,28.0841,-97.2009,21.0,1111122 
NERRS,ioos:station:NOAA.NERRS:marcwwq:1,2014-05-15T16:30:00Z,28.0841,-97.2009,16.0,1111122 
NERRS,ioos:station:NOAA.NERRS:marcwwq:1,2014-05-15T17:30:00Z,28.0841,-97.2009,13.0,1111122 
NERRS,ioos:station:NOAA.NERRS:marcwwq:1,2014-05-15T18:30:00Z,28.0841,-97.2009,19.0,1111122 
NERRS,ioos:station:NOAA.NERRS:marcwwq:1,2014-05-15T19:30:00Z,28.0841,-97.2009,14.0,1111122 
NERRS,ioos:station:NOAA.NERRS:marcwwq:1,2014-05-15T20:30:00Z,28.0841,-97.2009,18.0,1111122 
NERRS,ioos:station:NOAA.NERRS:marcwwq:1,2014-05-15T21:30:00Z,28.0841,-97.2009,26.0,1111122 
NERRS,ioos:station:NOAA.NERRS:marcwwq:1,2014-05-15T22:30:00Z,28.0841,-97.2009,15.0,1111122 
NERRS,ioos:station:NOAA.NERRS:marcwwq:1,2014-05-15T23:30:00Z,28.0841,-97.2009,14.0,1111122 
NERRS,ioos:station:NOAA.NERRS:marcwwq:1,2014-05-16T00:30:00Z,28.0841,-97.2009,14.0,1111122 
NERRS,ioos:station:NOAA.NERRS:marcwwq:1,2014-05-16T02:30:00Z,28.0841,-97.2009,14.0,1111122 
NERRS,ioos:station:NOAA.NERRS:marcwwq:1,2014-05-16T03:30:00Z,28.0841,-97.2009,17.0,1111122 
NERRS,ioos:station:NOAA.NERRS:marcwwq:1,2014-05-16T04:30:00Z,28.0841,-97.2009,16.0,1111122 